Tracking 30692 objects as of 16-Jun-2025
HD Live streaming from Space Station
objects crossing your sky now

STARLINK-31166

Track STARLINK-31166 now!
10-day predictions
STARLINK-31166 is classified as:


NORAD ID: 58789
Int'l Code: 2024-012C
Perigee: 494.5 km
Apogee: 496.0 km
Inclination: 43.0 °
Period: 94.4 minutes
Semi major axis: 6866 km
RCS: Unknown
Launch date: January 15, 2024
Source: United States (US)
Launch site: AIR FORCE EASTERN TEST RANGE (AFETR)
Your satellite tracking list
Your tracking list is empty




NASA's NSSDC Master Catalog

Two Line Element Set (TLE):
1 58789U 24012C   25167.46287182  .00006424  00000-0  25541-3 0  9991
2 58789  43.0010 227.5746 0001067 260.4499  99.6231 15.25882249 80530
Source of the keplerian elements: AFSPC